Weather History for Enid Vance AFB, OK

Change the Weather History Date:

Saturday, September 7, 2013

  Actual Average Record
Temperature  
Mean Temperature 86 °F -  
Max Temperature 100 °F 87 °F 102 °F (1998)
Min Temperature 72 °F 65 °F 54 °F (2011)
Cooling Degree Days 21    
Growing Degree Days 36 (Base 50)    
Moisture  
Dew Point 63 °F    
Average Humidity 51    
Maximum Humidity 76    
Minimum Humidity 26    
Precipitation  
Precipitation 0.00 in - - ()
Sea Level Pressure  
Sea Level Pressure 29.93 in    
Wind  
Wind Speed 10 mph (SSE)    
Max Wind Speed 16 mph    
Max Gust Speed -    
Visibility 10 miles    
Events      
Averages and records for this station are not official NWS values.
T = Trace of Precipitation, MM = Missing Value Source: NWS Daily Summary

Daily Weather History Graph

Daily Weather History Graph

Search for Another Location

Airport:

Trip Planner

Search our weather history database for the weather conditions in past years. The results will help you decide how hot, cold, wet, or windy it might be!

Date:

Astronomy

Sep. 07, 2013 Rise Set
Actual Time 7:08 AM CDT 7:50 PM CDT
Civil Twilight 6:41 AM CDT 8:16 PM CDT
Nautical Twilight 6:11 AM CDT 8:47 PM CDT
Astronomical Twilight 5:39 AM CDT 9:18 PM CDT
Moon 9:18 AM CDT (9/7) 8:56 PM CDT (9/7)
Length of Visible Light 13h 34m
Length of Day
12h 42m
Waxing Crescent, 5% of the Moon is Illuminated
Sep 7
Waxing Crescent
Sep 12
First Quarter
Sep 19
Full
Sep 26
Last Quarter
Oct 4
New

Hourly Weather History & Observations

Time (CDT) Temp. Heat Index Dew Point Humidity Pressure Visibility Wind Dir Wind Speed Gust Speed Precip Events Conditions
12:58 AM 77.5 °F - 66.0 °F 68% 29.96 in 10.0 mi SSE 10.4 mph - N/A   Clear
1:58 AM 76.6 °F - 65.3 °F 68% 29.96 in 10.0 mi SSE 11.5 mph - N/A   Clear
2:58 AM 76.1 °F - 64.9 °F 68% 29.95 in 10.0 mi SSE 8.1 mph - N/A   Scattered Clouds
3:58 AM 74.3 °F - 65.3 °F 73% 29.95 in 10.0 mi SSE 8.1 mph - N/A   Clear
4:58 AM 74.3 °F - 65.1 °F 73% 29.95 in 10.0 mi SE 6.9 mph - N/A   Clear
5:58 AM 73.2 °F - 64.8 °F 75% 29.95 in 10.0 mi SSE 8.1 mph - N/A   Clear
6:58 AM 72.9 °F - 64.9 °F 76% 29.96 in 10.0 mi SSE 9.2 mph - N/A   Clear
7:58 AM 73.4 °F - 64.8 °F 74% 29.97 in 10.0 mi SE 10.4 mph - N/A   Clear
8:58 AM 77.0 °F - 64.8 °F 66% 29.97 in 10.0 mi South 10.4 mph - N/A   Clear
9:58 AM 84.6 °F 86.1 °F 64.8 °F 51% 29.96 in 10.0 mi South 10.4 mph - N/A   Clear
10:58 AM 88.7 °F 90.4 °F 64.6 °F 45% 29.98 in 10.0 mi South 12.7 mph - N/A   Clear
11:58 AM 94.1 °F 95.5 °F 63.3 °F 36% 29.97 in 10.0 mi SSE 6.9 mph - N/A   Clear
12:58 PM 97.5 °F 98.7 °F 62.1 °F 31% 29.95 in 10.0 mi South 8.1 mph - N/A   Clear
1:58 PM 99.1 °F 99.8 °F 60.6 °F 28% 29.94 in 10.0 mi Variable 5.8 mph - N/A   Clear
2:58 PM 100.4 °F 101.3 °F 60.8 °F 27% 29.92 in 10.0 mi South 8.1 mph - N/A   Clear
3:58 PM 100.2 °F 100.5 °F 60.1 °F 26% 29.89 in 10.0 mi Variable 5.8 mph - N/A   Clear
4:58 PM 99.5 °F 100.4 °F 61.2 °F 28% 29.88 in 10.0 mi SE 11.5 mph - N/A   Clear
5:58 PM 97.7 °F 98.0 °F 60.1 °F 29% 29.87 in 10.0 mi SSE 16.1 mph - N/A   Clear
6:58 PM 95.2 °F 95.1 °F 60.1 °F 31% 29.87 in 10.0 mi SE 11.5 mph - N/A   Clear
7:58 PM 90.5 °F 90.7 °F 61.3 °F 38% 29.88 in 10.0 mi SE 11.5 mph - N/A   Clear
8:58 PM 86.5 °F 87.0 °F 62.4 °F 44% 29.89 in 10.0 mi SE 10.4 mph - N/A   Clear
9:58 PM 84.2 °F 85.0 °F 62.8 °F 48% 29.90 in 10.0 mi SSE 11.5 mph - N/A   Clear
10:58 PM 81.7 °F 83.2 °F 63.9 °F 55% 29.92 in 10.0 mi SE 8.1 mph - N/A   Clear
11:58 PM 80.2 °F 81.8 °F 63.5 °F 57% 29.91 in 10.0 mi SSE 9.2 mph - N/A   Clear